Location: Unnamed
(25.2826°S, 57.6099°W)
Time: 14:04:27
(UTC-04:00)

DOVE 4 - Visible Passes

Search period start: 15 March 2026 00:00
Search period end: 25 March 2026 00:00
Orbit: 572 x 755 km, 97.7° (Epoch: 15 March)

Date Brightness Start Highest point End Pass type
(mag) Time Alt. Az. Time Alt. Az. Time Alt. Az.
15 Mar ? 19:46:36 10° NW 19:49:52 17° W 19:53:09 10° SW visible
16 Mar ? 18:38:33 10° NNE 18:43:37 84° ESE 18:48:41 10° S visible
17 Mar ? 19:09:38 10° N 19:14:25 43° W 19:19:12 10° SSW visible
18 Mar ? 19:41:46 10° NW 19:45:19 19° W 19:48:51 10° SW visible
19 Mar ? 18:34:02 10° NNE 18:39:05 76° ESE 18:44:05 10° S visible
20 Mar ? 19:05:01 10° N 19:09:52 47° W 19:14:41 10° SSW visible
21 Mar ? 19:36:58 10° NW 19:40:43 21° W 19:44:27 10° SW visible
22 Mar ? 18:29:30 10° NNE 18:34:31 68° ESE 18:39:26 10° S visible
23 Mar ? 19:00:22 10° N 19:05:16 52° W 19:10:05 10° SSW visible
24 Mar ? 19:32:09 10° NNW 19:36:05 23° W 19:39:58 10° SW visible
